FW6259 Weather Reports


time (UTC)temp
C
wind
direction
speed
KPH
gust
KPH
rain 1hr
cm
rain 24hr
cm
rain mn
cm
humidity
%
barometer
mb
20260504200059 6 97 1.6 3.2 0.00 1.09 0.03 92 1019.3
20260504194506 6 46 0.0 3.2 0.00 1.09 0.03 92 1019.3
20260504193055 6 51 0.0 4.8 0.00 1.09 0.03 92 1019.4
20260504191605 5 74 0.0 6.4 0.00 1.09 0.03 93 1019.6
20260504190100 5 70 1.6 8.0 0.00 1.09 0.03 92 1019.9
20260504184557 5 84 1.6 8.0 0.00 1.09 0.03 92 1019.9
20260504183046 5 84 1.6 9.7 0.00 1.09 0.03 94 1020.0
20260504181545 5 99 3.2 11.3 0.00 1.09 0.03 93 1020.2
20260504180055 5 62 1.6 9.7 0.00 1.09 0.03 93 1020.3
20260504174556 5 90 3.2 8.0 0.00 1.09 0.03 92 1020.5
20260504173043 5 17 0.0 4.8 0.00 1.09 0.03 92 1020.4
20260504171556 5 88 1.6 4.8 0.00 1.09 0.03 92 1020.5
20260504120105 1 118 1.6 9.7 0.00 1.09 0.03 96 1021.5
20260504081510 1 6 3.2 11.3 0.05 1.09 0.03 96 1022.1
20260504044553 1 96 0.0 4.8 0.18 0.71 0.71 95 1023.0
20260504043109 1 88 0.0 4.8 0.15 0.66 0.66 95 1023.3
20260504041501 2 61 0.0 8.0 0.15 0.61 0.61 94 1023.2
20260504040057 2 39 1.6 6.4 0.13 0.56 0.56 94 1023.2
20260504034554 2 47 1.6 8.0 0.15 0.53 0.53 94 1023.3
20260504033046 2 69 1.6 6.4 0.18 0.51 0.51 94 1023.3
20260504031600 2 79 1.6 4.8 0.15 0.46 0.46 94 1023.4
20260504030109 2 60 1.6 8.0 0.15 0.43 0.43 93 1023.5
20260504024548 2 89 0.0 4.8 0.13 0.38 0.38 93 1023.4
20260504023059 2 90 0.0 8.0 0.10 0.33 0.33 92 1023.5
20260504021557 3 97 1.6 9.7 0.10 0.30 0.30 91 1023.6
20260504020043 3 55 1.6 8.0 0.08 0.28 0.28 91 1023.5
20260504014502 3 77 3.2 8.0 0.08 0.25 0.25 89 1023.5
20260504013055 3 49 1.6 9.7 0.08 0.23 0.23 89 1023.7
20260504011546 3 60 1.6 6.4 0.05 0.20 0.20 89 1023.8
20260504010200 3 39 0.0 4.8 0.08 0.20 0.20 89 1023.9
20260504004556 3 66 1.6 6.4 0.08 0.18 0.18 88 1023.9
20260504003046 3 68 0.0 8.0 0.05 0.15 0.15 87 1024.0
20260504001514 4 55 0.0 4.8 0.08 0.15 0.15 86 1024.1
20260504000003 4 68 0.0 3.2 0.05 0.13 0.13 86 1024.2
20260503234601 4 147 1.6 6.4 0.03 0.10 0.10 82 1024.3
20260503233053 4 23 0.0 4.8 0.05 0.10 0.10 83 1024.3
20260503231505 4 30 0.0 6.4 0.05 0.08 0.08 82 1024.6
20260503230114 4 142 0.0 3.2 0.05 0.08 0.08 83 1024.7
20260503224553 4 342 1.6 4.8 0.08 0.08 0.08 84 1024.6
20260503223100 4 23 0.0 3.2 0.05 0.05 0.05 81 1024.6
20260503221502 4 292 0.0 3.2 0.03 0.03 0.03 82 1024.7
20260503220052 5 188 1.6 3.2 0.03 0.03 0.03 80 1024.7
20260503214507 5 123 0.0 6.4 0.00 0.00 0.00 76 1024.8
20260503213056 5 253 1.6 6.4 0.00 0.00 0.00 73 1024.8
20260503211551 5 160 3.2 4.8 0.00 0.00 0.00 72 1024.8
20260503210047 6 188 4.8 8.0 0.00 0.00 0.00 66 1024.6
20260503204600 6 206 1.6 9.7 0.00 0.00 0.00 64 1024.7
20260503203050 6 105 4.8 9.7 0.00 0.00 0.00 62 1024.5
20260503201553 6 130 0.0 6.4 0.00 0.00 0.00 62 1024.5